Hourly Data Report for May 10, 2012

All times are specified in Local Standard Time (LST). Add 1 hour to adjust for Daylight Saving Time where and when it is observed.

ST. JOHN'S INTL A
NEWFOUNDLAND

47°37'07.000" N
52°45'09.000" W
140.50 m
8403505
71801
YYT

Download Data

Hourly Data (May 2012)
Hourly Data Report for May 10, 2012
Temp Definition
°C
Dew Point Temp Definition
°C
Rel Hum Definition
%
Wind Dir Definition
10's deg

Wind Spd Definition
km/h
Visibility Definition
km
Stn Press Definition
kPa
Hmdx Definition


Wind Chill Definition


Weather Definition


TIME
00:30 Legend Double Dagger 6.3 1.1 69 23 16 10.0 100.38     LegendNANA
01:30 Legend Double Dagger 6.7 0.4 64 22 22 10.0 100.37     LegendNANA
02:30 Legend Double Dagger 6.7 0.6 65 21 17 10.0 100.35     Mostly Cloudy
03:30 Legend Double Dagger 6.5 0.2 64 21 26 10.0 100.32     LegendNANA
04:30 Legend Double Dagger 5.7 0.5 69 20 24 10.0 100.32     LegendNANA
05:30 Legend Double Dagger 6.2 0.8 68 20 27 10.0 100.38     Cloudy
06:30 Legend Double Dagger 7.3 1.2 65 20 19 10.0 100.43     LegendNANA
07:30 Legend Double Dagger 6.1 3.8 85 18 19 10.0 100.47     Rain Showers
08:30 Legend Double Dagger 7.5 4.6 82 19 28 10.0 100.45     Rain Showers
09:30 Legend Double Dagger 8.6 6.2 85 18 24 10.0 100.44     Rain Showers
10:30 Legend Double Dagger 10.9 7.1 77 18 33 10.0 100.42     Rain Showers
11:30 Legend Double Dagger 11.6 7.4 75 20 31 10.0 100.41     Mostly Cloudy
12:30 Legend Double Dagger 14.5 8.3 66 21 34 10.0 100.39     LegendNANA
13:30 Legend Double Dagger 14.3 8.5 68 19 32 10.0 100.35     LegendNANA
14:30 Legend Double Dagger 15.5 9.0 65 19 36 10.0 100.33     Mostly Cloudy
15:30 Legend Double Dagger 12.2 7.9 75 20 28 10.0 100.39     LegendNANA
16:30 Legend Double Dagger 14.0 8.9 71 19 28 10.0 100.40     LegendNANA
17:30 Legend Double Dagger 12.9 9.0 77 20 31 10.0 100.42     Mostly Cloudy
18:30 Legend Double Dagger 11.6 8.8 83 20 26 10.0 100.45     LegendNANA
19:30 Legend Double Dagger 11.1 8.2 82 20 28 10.0 100.48     LegendNANA
20:30 Legend Double Dagger 10.1 7.2 82 20 27 10.0 100.55     Mostly Cloudy
21:30 Legend Double Dagger 9.3 6.8 84 18 26 10.0 100.52     LegendNANA
22:30 Legend Double Dagger 8.3 6.6 89 18 34 10.0 100.49     LegendNANA
23:30 Legend Double Dagger 7.8 6.4 91 18 40 10.0 100.48     Mostly Cloudy

Notes on Data Quality.

Legend

  • E = Estimated
  • M = Missing
  • NA = Not Available
  • ‡ = Partner data that is not subject to review by the National Climate Archives
Date modified: